Satellite: NCUBE2
Catalog number: 28897
Epoch time:      07052.21348316
Element set:    0190
Inclination:      098.1444 deg
RA of node:       311.2183 deg
Eccentricity:    0.0018031
Arg of perigee:   114.1038 deg
Mean anomaly:     246.2054 deg
Mean motion:   14.59676221 rev/day
Decay rate:       1.37e-06 rev/day^2
Epoch rev:           06245
Checksum:              271

Satellite: NMARS
Catalog number: 29662
Epoch time:      07052.96878526
Element set:    0087
Inclination:      051.6424 deg
RA of node:       335.2293 deg
Eccentricity:    0.0009850
Arg of perigee:   238.7723 deg
Mean anomaly:     121.2319 deg
Mean motion:   15.90334462 rev/day
Decay rate:     6.6060e-04 rev/day^2
Epoch rev:           00988
Checksum:              314

Satellite: FCAL
Catalog number: 29664
Epoch time:      07052.95287874
Element set:    0065
Inclination:      051.6393 deg
RA of node:       336.6053 deg
Eccentricity:    0.0014071
Arg of perigee:   248.2409 deg
Mean anomaly:     111.7098 deg
Mean motion:   15.84704255 rev/day
Decay rate:     2.0183e-04 rev/day^2
Epoch rev:           00984
Checksum:              307

/EX






More information about the Keps mailing list